This is the latest recevied weather packets stored in our database for station/object N4CRH-13. If no packets are shown the sender has not sent any weather packets the latest 10 day(s).
| Time | Temp. | Humidity | Pressure | Rain* | Wind** | Luminosity | Snow |
|---|---|---|---|---|---|---|---|
| 1778196087 | 17.22° C | 29% | 1292.5 hPa | 0 mm | - | 272 W/m² | - |
| 1778195783 | 16.67° C | 30% | 1292.5 hPa | 0 mm | - | 280 W/m² | - |
| 1778195481 | 16.67° C | 32% | 1292.5 hPa | 0 mm | - | 267 W/m² | - |
| 1778195177 | 16.67° C | 31% | 1292.6 hPa | 0 mm | - | 255 W/m² | - |
| 1778194874 | 16.67° C | 30% | 1292.6 hPa | 0 mm | - | 214 W/m² | - |
| 1778194569 | 17.22° C | 31% | 1292.4 hPa | 0 mm | - | 274 W/m² | - |
| 1778194266 | 17.22° C | 30% | 1292.6 hPa | 0 mm | - | 310 W/m² | - |
| 1778193961 | 17.22° C | 27% | 1292.6 hPa | 0 mm | - | 362 W/m² | - |
| 1778193658 | 17.22° C | 29% | 1292.6 hPa | 0 mm | - | 381 W/m² | - |
| 1778193354 | 17.22° C | 29% | 1292.9 hPa | 0 mm | - | 408 W/m² | - |
| 1778193051 | 17.22° C | 28% | 1292.6 hPa | 0 mm | - | 419 W/m² | - |
| 1778192748 | 16.11° C | 32% | 1292.9 hPa | 0 mm | - | 166 W/m² | - |
| 1778192445 | 16.67° C | 27% | 1292.9 hPa | 0 mm | - | 127 W/m² | - |
| 1778192141 | 15.56° C | 31% | 1292.9 hPa | 0 mm | - | 492 W/m² | - |
| 1778191838 | 15.56° C | 33% | 1292.9 hPa | 0 mm | - | 241 W/m² | - |
| 1778191535 | 17.22° C | 29% | 1292.8 hPa | 0 mm | - | 179 W/m² | - |
| 1778191233 | 17.22° C | 31% | 1293 hPa | 0 mm | - | 579 W/m² | - |
| 1778190928 | 17.22° C | 29% | 1293 hPa | 0 mm | - | 598 W/m² | - |
| 1778190627 | 17.78° C | 32% | 1293 hPa | 0 mm | - | 616 W/m² | - |
| 1778190324 | 16.67° C | 30% | 1293 hPa | 0 mm | - | 615 W/m² | - |
| 1778190020 | 15.56° C | 30% | 1293 hPa | 0 mm | - | 143 W/m² | - |
| 1778189716 | 16.11° C | 31% | 1293.1 hPa | 0 mm | - | 159 W/m² | - |
| 1778189414 | 15° C | 32% | 1293.1 hPa | 0 mm | - | 144 W/m² | - |
| 1778189108 | 15° C | 30% | 1293.2 hPa | 0 mm | - | 101 W/m² | - |
| 1778188806 | 16.11° C | 30% | 1293.4 hPa | 0 mm | - | 92 W/m² | - |
* Rain latest hour (hover to see other rain measurements)
** Current wind speed in m/s (hover to see current wind gust speed)